Location: Harbor Island
(32.3990°N, 80.4435°W)
Time: 22:11:05
(UTC-04:00)

Daily predictions for brighter satellites

Satellite Brightness Start Highest point End
(mag) Time Altitude Azimuth Time Altitude Azimuth Time Altitude Azimuth
Cosmos 2026 Rocket 4.0 20:53:05 10° S 20:59:08 75° E 21:05:16 10° N
ASTRO E2 4.1 20:57:01 10° W 21:00:27 27° SSW 21:03:53 10° SE
SWIFT 4.5 21:05:10 10° SW 21:07:03 13° S 21:08:54 10° SSE
Cosmos 332 Rocket 3.8 21:07:23 10° N 21:12:13 67° ENE 21:17:02 10° SSE
H-2A R/B 3.2 21:11:10 10° SE 21:15:05 30° ENE 21:19:02 10° N
USA 229 DEB 3.7 21:10:02 10° SSW 21:16:52 72° ESE 21:23:49 10° NE
USA 229 3.7 21:10:08 10° SSW 21:16:59 71° ESE 21:23:55 10° NE
Cosmos 1441 Rocket 3.4 21:16:21 10° S 21:20:01 48° E 21:23:39 10° NNE
Cosmos 540 Rocket 3.6 21:16:11 10° NNW 21:21:22 77° WSW 21:26:29 10° S
Cosmos 1328 Rocket 4.0 21:18:25 10° N 21:22:42 45° E 21:26:48 11° SSE
Cosmos 1655 Rocket 4.3 21:16:52 10° SSW 21:23:03 72° W 21:29:16 10° N
Cosmos 2322 Rocket 2.3 21:21:36 10° NNW 21:27:10 61° ENE 21:32:08 13° SSE
S3M 4.0 21:21:11 10° N 21:27:14 61° E 21:33:17 10° SSE
OAO 2 Rocket 4.2 21:22:47 10° SSW 21:27:21 29° SSE 21:31:56 10° E
Cosmos 1743 Rocket 3.7 21:27:54 10° S 21:32:22 81° W 21:36:51 10° N
Cosmos 2228 Rocket 3.1 21:29:26 10° N 21:33:56 86° E 21:38:27 10° S
In-Cosmos 22 4.3 21:30:26 10° S 21:36:12 85° W 21:41:59 10° N
Cosmos 1980 Rocket 3.5 21:31:26 10° NW 21:36:38 38° WSW 21:41:50 10° S
Cosmos 968 Rocket 4.2 21:31:53 10° SSW 21:36:57 57° WNW 21:42:05 10° N
SL-16 R/B 2.2 21:31:32 10° NNW 21:37:13 70° ENE 21:41:53 15° SSE
Cosmos 2360 Rocket 3.5 21:32:38 10° N 21:37:15 25° ENE 21:40:35 15° ESE
Cosmos 1500 Rocket 3.5 21:34:27 10° S 21:38:46 78° E 21:43:10 10° N
ATLAS CENTAUR R/B 1.9 21:38:34 10° NW 21:42:54 57° WSW 21:46:06 15° S
Cosmos 1908 4.0 21:40:57 10° NNE 21:44:33 35° E 21:46:19 23° SE
Cosmos 371 Rocket 3.4 21:43:26 10° NNW 21:48:15 78° WSW 21:52:11 15° S
ALOS 4.0 21:45:03 10° SSW 21:49:09 31° W 21:53:17 10° NW
deb Chang Zheng 4 3.9 21:45:46 10° N 21:50:04 69° WNW 21:54:23 10° SSW
USA 186 4.1 21:49:05 10° SW 21:50:12 13° W 21:51:20 10° WNW
Cosmos 1939 Rocket 2.7 21:47:30 19° SSE 21:50:15 74° ENE 21:54:10 10° N
Delta 2 Rocket 3.1 21:51:43 10° W 21:55:17 67° NNW 21:58:00 15° ENE
Cosmos 1674 2.6 21:53:25 15° S 21:56:27 77° E 22:00:18 10° N
Envisat 3.0 21:53:30 19° SSE 21:57:06 72° ENE 22:02:10 10° N
SPOT 5 3.0 21:55:18 25° SE 21:57:42 52° ENE 22:02:15 10° N
GPS 2-04 Rocket1 3.2 21:56:57 10° W 22:01:12 51° SSW 22:02:52 31° SSE
Cosmos 1833 4.4 21:57:38 10° SSW 22:03:21 74° WNW 22:09:03 10° NNE
ERS-1 Rocket 3.6 21:59:07 11° S 22:03:55 54° W 22:08:51 10° NNW
Tiangong 1 0.9 22:03:44 10° SW 22:06:47 60° SSE 22:07:00 58° ESE
Meteor 2-2 Rocket 4.3 22:01:43 10° N 22:07:44 89° ENE 22:12:06 20° S
USA 245 4.5 22:10:34 17° NE 22:10:34 17° NE 22:11:38 10° NNE
Cosmos 1437 2.6 22:08:49 43° S 22:09:45 76° E 22:13:02 10° NNE
Cosmos 1300 4.3 22:08:13 10° NNE 22:11:00 21° ENE 22:11:00 21° ENE
Cosmos 1437 Rocket 2.8 22:07:26 10° NNW 22:11:15 76° W 22:13:00 30° S
Cosmos 1515 Rocket 4.1 22:07:01 10° NNW 22:11:22 58° W 22:14:29 18° SSW
DELTA 2 R/B (1) 4.3 22:06:58 10° WNW 22:12:20 48° NNE 22:16:23 17° E
PSLV R/B 3.0 22:16:12 69° SSE 22:16:31 86° ENE 22:19:36 10° N
Cosmos 2266 Rocket 4.3 22:13:09 10° SSW 22:19:27 70° W 22:25:41 10° N
Sich 1 3.9 22:20:00 32° E 22:20:02 32° E 22:23:58 10° NNE
H-2A R/B 2.9 22:18:28 10° WSW 22:18:43 11° SW 22:18:43 11° SW
Cosmos 1633 Rocket 4.0 22:21:04 30° E 22:21:04 30° E 22:24:46 10° NNE
Cosmos 2151 3.0 22:18:32 23° SSW 22:21:03 77° W 22:25:15 10° N
Cosmos 2315 Rocket 4.1 22:16:49 10° N 22:22:56 59° E 22:25:34 34° SSE
COSMOS 2428 3.8 22:18:11 10° N 22:23:05 29° ENE 22:24:46 25° E
YAOGAN 6 2.6 22:23:27 57° ESE 22:23:48 61° ENE 22:27:24 10° N
NOSS 3-1 (C) 3.2 22:18:42 10° SSW 22:24:24 72° ESE 22:30:37 10° NE
Cosmos 405 3.3 22:23:19 10° NNW 22:26:55 65° W 22:27:44 47° SSW
Cosmos 1328 3.9 22:28:08 34° SSW 22:29:43 70° W 22:33:40 10° N
H-2A R/B 3.4 22:29:35 24° E 22:30:33 25° ENE 22:34:51 10° NNE
Cosmos 304 Rocket 3.7 22:26:10 10° NNW 22:30:59 74° ENE 22:32:12 49° SE
Cosmos 1805 Rocket 3.4 22:33:35 48° S 22:34:49 84° E 22:39:17 10° N
MetOp-A 4.2 22:33:52 34° S 22:36:14 77° WSW 22:41:36 10° NNW
Cosmos 1151 Rocket 3.7 22:32:48 10° NNW 22:36:59 51° W 22:38:40 32° SSW
ARGOS 3.2 22:37:03 45° SE 22:38:32 62° ENE 22:43:51 10° N
Cosmos 2219 Rocket 3.8 22:35:36 10° NNE 22:39:32 19° ENE 22:40:42 18° ENE
Cosmos 1244 Rocket 4.4 22:37:11 31° S 22:40:29 82° E 22:46:48 10° N
SPOT 1/Viking Rocket 3.4 22:41:06 49° SSE 22:42:31 83° ENE 22:47:40 10° N
Cosmos 2058 3.2 22:46:02 46° SW 22:46:58 62° W 22:51:02 10° N
Cosmos 1680 Rocket 3.5 22:43:03 10° NNW 22:48:18 78° WSW 22:49:36 51° S
Cosmos 1375 Rocket 4.5 22:42:52 10° NNW 22:49:26 83° WSW 22:51:34 46° SSE
H-2A R/B 4.4 22:48:07 11° SW 22:51:03 20° W 22:54:22 10° NW
Cosmos 2219 4.0 22:48:04 10° SW 22:53:38 52° WNW 22:59:15 10° N
CZ-4B R/B 4.3 22:50:01 10° N 22:55:06 50° WNW 22:58:43 18° SW
Terra 2.7 22:55:46 35° ENE 22:55:46 35° ENE 22:59:55 10° N
SL-14 R/B 3.4 22:56:58 71° NW 22:56:58 71° NW 23:00:44 10° N
Cosmos 1666 Rocket 3.6 22:56:36 67° SW 22:57:02 73° W 23:01:26 10° N
Cosmos 1703 4.4 22:58:43 35° NE 22:58:43 35° NE 23:01:13 10° NNE
Cosmos 1898 Rocket 3.3 22:56:18 54° SSW 22:57:30 90° WSW 23:02:43 10° NNE
Cosmos 1707 Rocket 3.4 22:53:43 10° N 22:58:03 88° NW 22:58:03 88° NW
Cosmos 1745 Rocket 4.0 22:57:28 52° SE 22:58:28 58° E 23:04:31 10° NNE
Cosmos 2150 Rocket 4.0 22:57:10 45° SSW 22:58:54 86° WNW 23:04:24 10° NNE
SL-08 R/B 4.4 22:58:31 53° SSE 22:59:55 71° E 23:06:09 10° N
Cosmos 1726 2.9 22:59:55 10° N 23:02:46 49° N 23:02:46 49° N
Meteor 1-27 4.1 22:58:28 10° N 23:04:10 86° W 23:05:12 62° S
Cosmos 1271 Rocket 4.1 23:00:51 10° N 23:03:14 32° NNE 23:03:14 32° NNE
Meteor 2-11 Rocket 4.3 22:58:26 10° N 23:04:36 88° W 23:06:04 55° S
Cosmos 858 Rocket 4.4 23:04:03 60° SSW 23:05:02 84° WNW 23:10:16 10° NNE
Cosmos 2333 4.5 22:59:29 10° N 23:05:06 53° ENE 23:05:40 51° E
Cosmos 2082 4.3 23:07:20 40° ENE 23:07:20 40° ENE 23:11:44 10° NE
Cosmos 2322 4.2 23:01:22 10° NNW 23:06:54 52° WSW 23:08:14 43° SSW
Cosmos 2237 Rocket 3.7 23:03:44 10° N 23:08:07 22° ENE 23:08:42 22° ENE
Cosmos 1933 Rocket 4.5 23:13:06 40° NE 23:13:06 40° NE 23:16:13 10° NNE
OAO 2 Rocket 3.3 23:06:35 10° WSW 23:11:37 78° SW 23:11:37 78° SW
DMSP B5D2-2 3.9 23:10:04 10° NNE 23:15:08 75° E 23:15:08 75° E
NOAA 11 4.5 23:16:38 51° SW 23:17:31 58° W 23:22:53 10° NNW
Cosmos 2360 Rocket 3.2 23:16:08 10° NW 23:21:15 36° WSW 23:22:22 33° SW
NOSS 3-1 (A) 4.2 23:21:45 10° SW 23:27:21 49° NW 23:33:29 10° NNE
Cosmos 1386 Rocket 4.3 23:27:31 73° E 23:27:36 73° E 23:33:35 10° N
NOSS 0 Rocket 4.2 23:27:09 10° N 23:33:08 51° ENE 23:33:19 51° ENE
USA 32 4.2 23:28:47 10° N 23:33:59 63° W 23:34:01 63° W
Meteor 2-10 4.1 23:28:34 10° N 23:34:15 87° NNE 23:34:15 87° NNE
Meteor 1-4 Rocket 4.5 23:32:06 10° NNW 23:34:10 30° NNW 23:34:10 30° NNW
Cosmos 1626 4.3 23:40:12 24° N 23:40:12 24° N 23:41:46 10° N
Cosmos 2227 Rocket 2.2 23:42:28 78° NNW 23:42:28 78° NNW 23:47:53 10° NNE
ATLAS 2AS CENTAUR R/B 2.8 23:48:10 66° SSW 23:49:25 86° ESE 23:57:24 10° NNE
